[[{"header":{"parameterUnit":"m.s-1","parameterCategory":1,"la1":30.2991,"la2":30.254,"lo1":-89.0895,"lo2":-89.0444,"dy":0.0017,"dx":0.0017,"nx":28,"ny":28,"refTime":"2025-03-21T09:00:00:Z","depth":0,"parameterNumber":2,"parameterNumberName":"U-component_of_WINDS"},"data":[0,0,0,0,0,0,0,0,0,0,0,0,0,0,0,0,0,0,0,0,0,0,0,0,0,0,0,0,0,0,0,0,0,0,0,0,0,0,0,0,0,0,0,0,0,0,0,0,0,0,0,0,0,0,0,0,0,0,0.063,0.0632,0,0.0811,0.0813,0.0815,0.0912,0.0913,0.0913,0.0913,0.1098,0.1103,0.1107,0,0,0,0,0,0,0,0,0,0,0,0,0,0.0366,0.037,0.063,0.0632,0.0634,0.0811,0.0813,0.0816,0.0912,0.0913,0.0913,0.0913,0.1097,0.1102,0.1108,0,0,0,0,0,0,0,0,0,0,0,0,0,0.0507,0.0372,0.0629,0.0704,0.0712,0.081,0.0813,0.0816,0.0912,0.0913,0.0913,0.0913,0.1095,0.1102,0.1109,0.1146,0,0,0.113,0.1133,0,0,0,0,0,0,0,0,0.0499,0.0517,0.069,0.0699,0.0708,0.0839,0.0788,0.0927,0.0912,0.0836,0.0913,0.0913,0.1012,0.1026,0.1059,0.1155,0.1163,0.1131,0.1135,0.1138,0.114,0,0,0,0,0,0,0,0.0489,0.0509,0.0701,0.0693,0.0704,0.0728,0.0748,0.0815,0.092,0.0843,0.085,0.0871,0.1017,0.1052,0.1064,0.1166,0.1131,0.1137,0.1141,0.1144,0.1301,0.1301,0,0,0,0,0,0,0.0467,0.0501,0.0696,0.0707,0.0602,0.0732,0.0755,0.0797,0.092,0.0939,0.087,0.0874,0.104,0.1056,0.1071,0.1123,0.1138,0.1145,0.1149,0.1301,0.1301,0.1301,0,0,0,0,0,0,0.0461,0.0484,0.0688,0.0606,0.0634,0.0736,0.0783,0.08,0.0836,0.094,0.0959,0.0887,0.104,0.1061,0.1127,0.1131,0.1148,0.1155,0.1301,0.1301,0.1301,0.1227,0,0,0,0,0,0,0.0453,0.0481,0.0497,0.0605,0.0638,0.0741,0.0783,0.0804,0.0848,0.0855,0.0961,0.0979,0.1042,0.1116,0.1134,0.1141,0.116,0.1301,0.1301,0.1301,0.1229,0.1224,0.1219,0,0,0,0,0,0.0444,0.0469,0.0497,0.052,0.0659,0.0741,0.076,0.0832,0.0848,0.0864,0.0931,0.0975,0.1127,0.1121,0.1143,0.1152,0.1301,0.1301,0.1301,0.1231,0.1225,0.1219,0,0,0,0,0,0,0.0358,0.0484,0.0517,0.0578,0.0648,0.0757,0.078,0.0823,0.089,0.0894,0.0982,0.1005,0.1062,0.1114,0.1105,0.1194,0.1219,0.1223,0.1159,0.1153,0.1149,0.1135,0.1166,0,0,0,0,0,0.0346,0.0402,0.0509,0.0553,0.0586,0.0677,0.0715,0.0765,0.0841,0.0871,0.0943,0.1015,0.1079,0.1119,0.1184,0.1237,0.1261,0.1254,0.1249,0.1244,0.1247,0.1278,0.1276,0.13,0.13,0.13,0,0,0.0322,0.0398,0.0428,0.0537,0.0598,0.0653,0.0701,0.0758,0.08,0.088,0.0946,0.1001,0.1087,0.1146,0.1176,0.1191,0.1245,0.1244,0.124,0.1245,0.1278,0.1275,0.1273,0.13,0.13,0.13,0,0,0.0307,0.037,0.0413,0.0472,0.0563,0.0623,0.0632,0.0735,0.0775,0.0843,0.0904,0.0955,0.1063,0.1122,0.1165,0.1171,0.1214,0.119,0.1164,0.1194,0.1192,0.1191,0.1192,0.1192,0.1192,0.1192,0.1192,0,0.0265,0.0352,0.043,0.0483,0.0529,0.0604,0.0647,0.0701,0.0807,0.0837,0.0852,0.0989,0.1053,0.1126,0.1128,0.1161,0.1175,0.1178,0.1186,0.1186,0.1186,0.1188,0.1188,0.1188,0.1189,0.1189,0.1189,0,0.0297,0.0356,0.038,0.0481,0.0529,0.0577,0.0661,0.0701,0.0747,0.0805,0.0873,0.0951,0.1032,0.1054,0.1099,0.1134,0.114,0.1169,0.1196,0.1178,0.1182,0.1184,0.1183,0.1184,0.1185,0.1186,0,0,0.0233,0.0376,0.0383,0.0429,0.0534,0.0581,0.0632,0.0712,0.0744,0.0815,0.086,0.0949,0.0977,0.1027,0.1079,0.1105,0.1104,0.1131,0.1135,0.1123,0.1146,0.1123,0.1123,0.1133,0.1133,0.1134,0.1139,0,0.0232,0.0328,0.0399,0.0468,0.0523,0.0594,0.0638,0.0707,0.0762,0.0817,0.0878,0.094,0.0972,0.1003,0.1032,0.1097,0.1109,0.1098,0.1175,0.1177,0.1151,0.1125,0.1102,0.1103,0.1141,0.1141,0.1142,0,0.0245,0.0313,0.0387,0.0485,0.0511,0.055,0.0628,0.068,0.0759,0.0797,0.0852,0.0906,0.0962,0.0983,0.1062,0.1053,0.1088,0.1125,0.1127,0.1137,0.1158,0.1134,0.1105,0.1105,0.1145,0.1145,0.1144,0,0.019,0.03,0.0359,0.0396,0.0513,0.0538,0.0588,0.0667,0.071,0.0779,0.0807,0.0881,0.0921,0.0977,0.1049,0.1058,0.112,0.1147,0.1153,0.1151,0.1163,0.1162,0.1139,0.1186,0.1186,0.1186,0.1186,0,0.0182,0.0224,0.0336,0.0371,0.0421,0.0501,0.0548,0.0603,0.0673,0.0721,0.0787,0.083,0.0922,0.0976,0.1033,0.1089,0.1107,0.114,0.1154,0.1134,0.1129,0.1158,0.116,0.1187,0.1187,0.1187,0.1186,0,0.0129,0.0205,0.0274,0.0378,0.0405,0.0437,0.0526,0.0563,0.0622,0.0681,0.07,0.0792,0.0859,0.0936,0.1029,0.1067,0.1119,0.114,0.1092,0.11,0.1102,0.11,0.1097,0.11,0.1145,0.1144,0.1144,0,0.0118,0.0153,0.0261,0.0297,0.0345,0.0403,0.0448,0.0528,0.0571,0.0663,0.0689,0.0761,0.0823,0.0927,0.1002,0.1073,0.1096,0.109,0.1107,0.1085,0.1096,0.1092,0.1096,0.1085,0.1084,0.1083,0.1083,0,0.0092,0.0128,0.0189,0.0264,0.0315,0.0377,0.0442,0.0468,0.0562,0.0607,0.0676,0.0724,0.0818,0.0889,0.0969,0.102,0.1066,0.1077,0.1082,0.1061,0.1031,0.1047,0.1078,0.1077,0.1077,0.1078,0.1078,0.1078,0.006,0.0093,0.0174,0.024,0.0298,0.0357,0.0397,0.046,0.052,0.0603,0.0646,0.0715,0.0793,0.0905,0.0954,0.1008,0.1024,0.1032,0.1034,0.1034,0.1028,0.1023,0.1023,0.1024,0.1024,0.1024,0.1024,0,0.0036,0.0091,0.0151,0.024,0.0292,0.0332,0.0406,0.0446,0.0505,0.0574,0.0634,0.0713,0.0781,0.0861,0.0935,0.0963,0.0986,0.0979,0.0978,0.0989,0.101,0.0998,0.0959,0.0959,0.0959,0.0959,0.0959,0.0959,0.0029,0.0088,0.0133,0.0221,0.0276,0.0344,0.0382,0.0437,0.0492,0.0578,0.0635,0.0687,0.076,0.0839,0.0904,0.0925,0.0949,0.0936,0.0964,0.0982,0.0987,0.0993,0.0982,0.094,0.094,0.0938,0.0938,0.0938]},{"header":{"parameterUnit":"m.s-1","parameterCategory":1,"la1":30.2991,"la2":30.254,"lo1":-89.0895,"lo2":-89.0444,"dy":0.0017,"dx":0.0017,"nx":28,"ny":28,"refTime":"2025-03-21T09:00:00:Z","depth":0,"parameterNumber":3,"parameterNumberName":"V-component_of_WINDS"},"data":[0,0,0,0,0,0,0,0,0,0,0,0,0,0,0,0,0,0,0,0,0,0,0,0,0,0,0,0,0,0,0,0,0,0,0,0,0,0,0,0,0,0,0,0,0,0,0,0,0,0,0,0,0,0,0,0,0,0,3.9683,3.9683,0,3.9638,3.9637,3.9637,3.9569,3.9568,3.9567,3.9566,3.9518,3.9518,3.9518,0,0,0,0,0,0,0,0,0,0,0,0,0,3.9712,3.9712,3.9683,3.9683,3.9682,3.9638,3.9637,3.9636,3.9569,3.9568,3.9567,3.9565,3.9518,3.9518,3.9518,0,0,0,0,0,0,0,0,0,0,0,0,0,3.9687,3.9712,3.9684,3.9644,3.964,3.9638,3.9637,3.9636,3.957,3.9568,3.9566,3.9565,3.9518,3.9518,3.9518,3.9551,0,0,3.9517,3.9517,0,0,0,0,0,0,0,0,3.9688,3.9686,3.965,3.9646,3.9642,3.9607,3.963,3.9608,3.957,3.9596,3.9566,3.9564,3.9549,3.9546,3.9542,3.9549,3.9547,3.9517,3.9517,3.9517,3.9517,0,0,0,0,0,0,0,3.969,3.9687,3.9665,3.965,3.9645,3.9628,3.9622,3.9625,3.9583,3.9594,3.9589,3.9584,3.9547,3.9542,3.954,3.9547,3.9517,3.9517,3.9517,3.9517,3.9578,3.9579,0,0,0,0,0,0,3.9698,3.9689,3.9667,3.9664,3.9661,3.9629,3.9622,3.962,3.9583,3.9576,3.9586,3.9581,3.9543,3.954,3.9538,3.9574,3.9517,3.9517,3.9516,3.9576,3.9578,3.958,0,0,0,0,0,0,3.9699,3.9696,3.9669,3.9675,3.967,3.963,3.9628,3.962,3.9615,3.9577,3.9569,3.9589,3.9542,3.9538,3.9548,3.9571,3.9517,3.9516,3.9574,3.9577,3.9579,3.9646,0,0,0,0,0,0,3.97,3.9697,3.971,3.9676,3.967,3.968,3.963,3.9621,3.9615,3.9609,3.9578,3.9571,3.954,3.9549,3.9548,3.957,3.9516,3.9572,3.9575,3.9578,3.9642,3.9651,3.9659,0,0,0,0,0,3.9701,3.9731,3.9711,3.9708,3.9685,3.9682,3.9678,3.9643,3.9617,3.9629,3.9605,3.9572,3.9569,3.9551,3.9549,3.9571,3.957,3.9574,3.9578,3.9638,3.9649,3.9658,0,0,0,0,0,0,3.9768,3.9725,3.9703,3.9722,3.9706,3.967,3.9684,3.9656,3.9646,3.9641,3.9597,3.959,3.9605,3.9589,3.9569,3.9601,3.9564,3.9568,3.9611,3.9621,3.9629,3.9632,3.9516,0,0,0,0,0,3.9785,3.9786,3.9749,3.977,3.9763,3.9725,3.9722,3.9696,3.9678,3.967,3.9646,3.9629,3.9624,3.9622,3.9615,3.9639,3.9631,3.9654,3.9662,3.9669,3.9673,3.9683,3.9692,3.9593,3.9593,3.9593,0,0,3.9821,3.9797,3.9801,3.9783,3.9767,3.9768,3.972,3.9724,3.9724,3.9671,3.9678,3.966,3.9638,3.9655,3.9661,3.9642,3.9698,3.9674,3.968,3.968,3.9688,3.9698,3.9706,3.9596,3.9595,3.9595,0,0,3.9885,3.9868,3.9883,3.9868,3.9845,3.982,3.9824,3.9792,3.9778,3.9785,3.9745,3.9744,3.9737,3.9723,3.9715,3.9774,3.9742,3.9773,3.9816,3.9827,3.9835,3.9841,3.9861,3.9869,3.9777,3.9777,3.9777,0,3.9932,3.9933,3.9895,3.9901,3.9894,3.9845,3.986,3.9847,3.9823,3.9819,3.9798,3.9788,3.9769,3.9782,3.9796,3.9791,3.9793,3.9776,3.9837,3.9843,3.9849,3.9867,3.9875,3.978,3.978,3.978,3.9779,0,3.9991,3.9992,4.0007,3.9985,3.9979,3.999,3.9953,3.9952,3.9926,3.9903,3.991,3.9887,3.9874,3.9875,3.9851,3.9884,3.9872,3.9845,3.9807,3.9863,3.9879,3.9886,3.9786,3.9784,3.9783,3.9782,0,0,4.0096,4.0052,4.0058,4.0047,4.0018,4.0018,4.0026,4.0014,4.0013,3.9999,4.0003,3.9998,3.9972,3.9963,3.9936,3.9945,3.9992,3.9916,3.9915,3.993,4.0026,4.0046,4.0055,3.9972,3.9973,3.9974,4.0027,0,4.0154,4.0165,4.0131,4.0151,4.0151,4.0105,4.0112,4.0094,4.0073,4.007,4.0046,4.0042,4.0009,4.0003,4.001,3.9985,4.001,3.9981,3.9975,3.9975,3.9981,4.0064,4.0085,4.0137,4.0034,4.0035,4.0035,0,4.0223,4.0212,4.0232,4.0201,4.0199,4.0206,4.0192,4.0189,4.0168,4.0152,4.0142,4.011,4.0115,4.008,4.0085,4.0066,4.0061,4.0048,4.0049,4.0047,4.0008,4.0062,4.0152,4.016,4.0045,4.0045,4.0044,0,4.0297,4.0287,4.0297,4.0289,4.0253,4.0259,4.0244,4.0221,4.0216,4.0203,4.0199,4.0187,4.018,4.0172,4.0137,4.0115,4.0146,4.0109,4.0132,4.0133,4.014,4.014,4.023,4.0139,4.0139,4.0139,4.0139,0,4.0365,4.0378,4.0329,4.0335,4.0349,4.0309,4.0324,4.0304,4.0285,4.0286,4.0246,4.0247,4.0203,4.0199,4.0173,4.018,4.0178,4.0164,4.0156,4.0167,4.0169,4.0163,4.0158,4.0141,4.014,4.014,4.014,0,4.0449,4.0417,4.0424,4.039,4.0382,4.0393,4.0363,4.0367,4.0343,4.0345,4.0343,4.0306,4.0299,4.0265,4.025,4.0232,4.0249,4.0235,4.0256,4.0251,4.0276,4.0274,4.0364,4.0374,4.0279,4.028,4.0281,0,4.0494,4.0503,4.047,4.0468,4.0455,4.0452,4.0447,4.0408,4.0403,4.038,4.0386,4.0377,4.0367,4.0359,4.033,4.0319,4.0303,4.0336,4.0301,4.0311,4.0302,4.0302,4.0302,4.0343,4.0344,4.0345,4.0346,0,4.0577,4.056,4.0554,4.0541,4.0535,4.0524,4.051,4.051,4.0467,4.0464,4.0457,4.045,4.0435,4.0426,4.0409,4.0393,4.0362,4.0357,4.0362,4.0372,4.0383,4.0376,4.0275,4.0355,4.0354,4.0353,4.0353,4.0353,4.0642,4.0648,4.0625,4.0618,4.0604,4.0591,4.0593,4.0569,4.0563,4.0548,4.0526,4.0522,4.05,4.0474,4.0461,4.0456,4.0439,4.0446,4.0447,4.0449,4.0454,4.0385,4.0453,4.0453,4.0453,4.0453,4.0452,0,4.0722,4.0705,4.0699,4.0681,4.0676,4.0648,4.063,4.0628,4.0625,4.0607,4.0598,4.059,4.058,4.0551,4.0538,4.054,4.0525,4.0538,4.0537,4.0533,4.0471,4.0468,4.055,4.055,4.055,4.055,4.055,4.055,4.0762,4.077,4.0751,4.0751,4.0734,4.073,4.0723,4.0711,4.0696,4.0689,4.0681,4.0661,4.0638,4.0623,4.0613,4.0604,4.0601,4.0618,4.0605,4.0547,4.0538,4.0529,4.0525,4.0618,4.0618,4.0667,4.0667,4.0667]}]]